CW5570 Weather Reports


time (UTC)temp
C
wind
direction
speed
KPH
gust
KPH
rain 1hr
cm
rain 24hr
cm
rain mn
cm
humidity
%
barometer
mb
20260502160306 13 0.0 0.0 0.00 0.33 0.00 63 1007.4
20260502152305 13 0.0 0.0 0.25 0.33 0.00 62 1008.0
20260502151306 12 0.0 0.0 0.30 0.33 0.00 62 1008.0
20260502150306 12 0.0 0.0 0.33 0.33 0.00 61 1008.3
20260502130303 17 0.0 0.0 0.00 0.00 0.00 64 1009.4
20260502123306 17 0.0 0.0 0.00 0.00 0.00 66 1009.8
20260502122306 17 0.0 0.0 0.00 0.00 0.00 66 1010.0
20260502121305 17 0.0 0.0 0.00 0.00 0.00 67 1010.3
20260502120306 17 0.0 0.0 0.00 0.00 0.00 68 1010.3
20260502115306 17 0.0 0.0 0.00 0.00 0.00 68 1010.3
20260502114306 17 0.0 0.0 0.00 0.00 0.00 69 1010.5
20260502113306 16 0.0 0.0 0.00 0.00 0.00 70 1010.5
20260502112305 16 0.0 0.0 0.00 0.00 0.00 71 1010.7
20260502111306 16 0.0 0.0 0.00 0.00 0.00 72 1010.9
20260502110306 16 0.0 0.0 0.00 0.00 0.00 73 1011.2
20260502105306 15 0.0 0.0 0.00 0.00 0.00 73 1011.4
20260502104306 15 0.0 0.0 0.00 0.00 0.00 73 1011.4
20260502103305 15 0.0 0.0 0.00 0.00 0.00 73 1011.6
20260502102306 14 0.0 0.0 0.00 0.00 0.00 72 1011.8
20260502101306 14 0.0 0.0 0.00 0.00 0.00 72 1012.1
20260502100306 13 0.0 0.0 0.00 0.00 0.00 72 1012.1
20260502091310 13 0.0 0.0 0.00 0.00 0.00 71 1012.5
20260502090302 13 0.0 0.0 0.00 0.00 0.00 70 1012.7
20260502071301 11 0.0 0.0 0.00 0.00 0.00 65 1013.4
20260502070303 11 0.0 0.0 0.00 0.00 0.00 65 1013.4
20260502065310 11 0.0 0.0 0.00 0.00 0.00 65 1013.4
20260502064306 10 0.0 0.0 0.00 0.00 0.00 65 1013.4
20260502063306 10 0.0 0.0 0.00 0.00 0.00 65 1013.4
20260502062306 10 0.0 0.0 0.00 0.00 0.00 64 1013.4
20260502061310 10 0.0 0.0 0.00 0.00 0.00 64 1013.4
20260502060306 10 0.0 0.0 0.00 0.00 0.00 64 1013.4
20260502055305 10 0.0 0.0 0.00 0.00 0.00 64 1013.4
20260502054306 10 0.0 0.0 0.00 0.00 0.00 63 1013.2
20260502053302 10 0.0 0.0 0.00 0.00 0.00 63 1013.4
20260502052306 10 0.0 0.0 0.00 0.00 0.00 63 1013.4
20260502051306 10 0.0 0.0 0.00 0.00 0.00 63 1013.4
20260502050310 10 0.0 0.0 0.00 0.00 0.00 62 1013.4
20260502045305 10 0.0 0.0 0.00 0.00 0.00 63 1013.4
20260502044306 10 0.0 0.0 0.00 0.00 0.00 62 1013.4
20260502043306 10 0.0 0.0 0.00 0.00 0.00 62 1013.4
20260502042306 10 0.0 0.0 0.00 0.00 0.00 62 1013.6
20260502041306 10 0.0 0.0 0.00 0.00 0.00 62 1013.6
20260502040306 10 0.0 0.0 0.00 0.00 0.00 61 1013.4
20260502035306 10 0.0 0.0 0.00 0.00 0.00 61 1013.4
20260502034310 10 0.0 0.0 0.00 0.00 0.00 62 1013.4
20260502033310 10 0.0 0.0 0.00 0.00 0.00 61 1013.6
20260502032306 10 0.0 0.0 0.00 0.00 0.00 61 1013.6
20260502031306 10 0.0 0.0 0.00 0.00 0.00 61 1013.9
20260502030302 9 0.0 0.0 0.00 0.00 0.00 61 1013.9
20260502025306 9 0.0 0.0 0.00 0.00 0.00 60 1013.9
20260502024306 9 0.0 0.0 0.00 0.00 0.00 60 1013.9
20260502023306 10 0.0 0.0 0.00 0.00 0.00 60 1014.1
20260502022306 10 0.0 0.0 0.00 0.00 0.00 59 1014.3
20260502021302 10 0.0 0.0 0.00 0.00 0.00 60 1014.3
20260502020306 10 0.0 0.0 0.00 0.00 0.00 60 1014.3
20260502015306 10 0.0 0.0 0.00 0.00 0.00 60 1014.3
20260502014306 10 0.0 0.0 0.00 0.00 0.00 60 1014.3
20260502013306 10 0.0 0.0 0.00 0.00 0.00 59 1014.3
20260502012302 10 0.0 0.0 0.00 0.00 0.00 59 1014.3
20260502011306 11 0.0 0.0 0.00 0.00 0.00 59 1014.3
20260502010310 11 0.0 0.0 0.00 0.00 0.00 59 1014.5
20260502005306 11 0.0 0.0 0.00 0.00 0.00 59 1014.5
20260502004306 11 0.0 0.0 0.00 0.00 0.00 58 1014.5
20260502003305 11 0.0 0.0 0.00 0.00 0.00 58 1014.8
20260502002306 11 0.0 0.0 0.00 0.00 0.00 58 1014.8
20260502001310 11 0.0 0.0 0.00 0.00 0.00 57 1014.8
20260502000306 11 0.0 0.0 0.00 0.00 0.00 57 1014.8
20260501235306 11 0.0 0.0 0.00 0.00 0.00 57 1014.8
20260501234305 11 0.0 0.0 0.00 0.00 0.00 57 1015.0
20260501233310 11 0.0 0.0 0.00 0.00 0.00 56 1014.8
20260501232306 11 0.0 0.0 0.00 0.00 0.00 56 1015.2
20260501231306 11 0.0 0.0 0.00 0.00 0.00 56 1015.2
20260501230306 11 0.0 0.0 0.00 0.00 0.00 56 1015.2
20260501225305 11 0.0 0.0 0.00 0.00 0.00 56 1015.0
20260501224306 11 0.0 0.0 0.00 0.00 0.00 56 1015.2
20260501223306 11 0.0 0.0 0.00 0.00 0.00 55 1015.2
20260501222306 11 0.0 0.0 0.00 0.00 0.00 55 1015.2
20260501221306 11 0.0 0.0 0.00 0.00 0.00 55 1015.2
20260501220302 11 0.0 0.0 0.00 0.00 0.00 54 1015.2
20260501215310 11 0.0 0.0 0.00 0.00 0.00 55 1015.2
20260501214306 11 0.0 0.0 0.00 0.00 0.00 54 1015.2
20260501213306 11 0.0 0.0 0.00 0.00 0.00 54 1015.2
20260501212306 11 0.0 0.0 0.00 0.00 0.00 54 1015.2
20260501211302 11 0.0 0.0 0.00 0.00 0.00 54 1015.0
20260501210306 12 0.0 0.0 0.00 0.00 0.00 54 1015.0
20260501205306 12 0.0 0.0 0.00 0.00 0.00 54 1015.0
20260501204302 12 0.0 0.0 0.00 0.00 0.00 54 1015.0
20260501203306 12 0.0 0.0 0.00 0.00 0.00 54 1015.0
20260501202301 12 0.0 0.0 0.00 0.00 0.00 53 1014.8
20260501201310 12 0.0 0.0 0.00 0.00 0.00 53 1014.8
20260501200310 13 0.0 0.0 0.00 0.00 0.00 53 1014.8
20260501195306 13 0.0 0.0 0.00 0.00 0.00 53 1014.8
20260501194306 13 0.0 0.0 0.00 0.00 0.00 53 1014.8
20260501193302 13 0.0 0.0 0.00 0.00 0.00 53 1014.5
20260501192310 14 0.0 0.0 0.00 0.00 0.00 52 1014.3
20260501191306 14 0.0 0.0 0.00 0.00 0.00 52 1014.3
20260501190306 15 0.0 0.0 0.00 0.00 0.00 52 1014.3
20260501185309 15 0.0 0.0 0.00 0.00 0.00 52 1014.3
20260501184306 15 0.0 0.0 0.00 0.00 0.00 52 1014.3
20260501183306 15 0.0 0.0 0.00 0.00 0.00 52 1014.3
20260501182307 16 0.0 0.0 0.00 0.00 0.00 52 1014.1
20260501181306 16 0.0 0.0 0.00 0.00 0.00 52 1014.1
20260501180302 16 0.0 0.0 0.00 0.00 0.00 52 1014.1
20260501175306 16 0.0 0.0 0.00 0.00 0.00 52 1014.1
20260501174306 16 0.0 0.0 0.00 0.00 0.00 52 1014.1
20260501173307 16 0.0 0.0 0.00 0.00 0.00 52 1014.1
20260501172306 16 0.0 0.0 0.00 0.00 0.00 52 1014.3
20260501171306 16 0.0 0.0 0.00 0.00 0.00 52 1014.3
20260501170302 16 0.0 0.0 0.00 0.00 0.00 53 1014.3
20260501165307 16 0.0 0.0 0.00 0.00 0.00 53 1014.3
20260501164306 17 0.0 0.0 0.00 0.00 0.00 53 1014.5
20260501163306 17 0.0 0.0 0.00 0.00 0.00 53 1014.5
20260501162306 17 0.0 0.0 0.00 0.00 0.00 53 1014.3
20260501161302 18 0.0 0.0 0.00 0.00 0.00 53 1014.3